sat.trackr.live / text

‹ back to catalog

STARLINK-33784

NORAD 63453 · 2025-069W

PAYLOAD ACTIVE UNKNOWN

§ Identity

Operator
Country
US
Launch date
2025-04-04
Launch site
AFWTR
Launch vehicle
Mass (kg)
RCS (m²)

Purposes: comms

External: N2YO · Heavens-Above · Gunter

§ Orbital elements

Epoch: 2026-05-24T23:52:02.648640Z

Period
94.10 min
Inclination
53.1596°
Eccentricity
0.0001485
Mean motion
15.30228445 rev/d
Perigee alt
474.1 km
Apogee alt
476.1 km
Semi-major
6,853.3 km
B*
5.2046e-4
RAAN
148.3058°
Arg perigee
93.9648°
Mean anomaly
266.1522°
Rev number
6,508

§ Raw data

STARLINK-337841 63453U 25069W   26144.99447510  .00015100  00000+0  52046-3 0  99952 63453  53.1596 148.3058 0001485  93.9648 266.1522 15.30228445 65085

JSON: /api/v1/satellites/63453 · /tle

For live sub-satellite position, see the globe view (requires WebGL).

§ Visibility from observer

Set your observer location to see the next 7 days of passes ≥ 10°. The values pass through the URL so the page stays shareable.

No JS? Fill the form by hand. The geolocation button needs JavaScript.